When you browse on this site, cookies collect data to enhance your experience and personalize the content and advertising you see.
Visit our Privacy Policy to learn more. By continuing to use the site, you agree to this use of cookies and data.
  • In Austria
  • List of Countries
  • For 7 days
  • Water Temperature
  • Weather Map
  • News
  • Weather Widgets
  • user-avatar
    Login

    Hourly Weather Suesca

    Today, 23 September, Monday

    Time Temperature Precipitation Wind Pressure Humidity
    00:00 +10°C° 0 mm 1 mps 553 mmHg 96%
    01:00 +10°C° 0 mm 1 mps 553 mmHg 96%
    02:00 +10°C° 0 mm 1 mps 553 mmHg 95%
    03:00 +9°C° 0 mm 1 mps 553 mmHg 95%
    04:00 +9°C° 0 mm 1 mps 553 mmHg 94%
    05:00 +10°C° 0 mm 1 mps 553 mmHg 91%
    06:00 +11°C° 0 mm 1 mps 554 mmHg 89%
    07:00 +12°C° 0 mm 1 mps 555 mmHg 86%
    08:00 +14°C° 0 mm 1 mps 556 mmHg 76%
    09:00 +16°C° 0 mm 1 mps 558 mmHg 65%
    10:00 +20°C° 0 mm 1 mps 559 mmHg 55%
    11:00 +19°C° 0.2 mm 2 mps 558 mmHg 57%
    12:00 +19°C° 0.2 mm 2 mps 557 mmHg 60%
    13:00 +19°C° 0.2 mm 2 mps 556 mmHg 62%
    14:00 +18°C° 0.7 mm 2 mps 556 mmHg 69%
    15:00 +17°C° 0.7 mm 2 mps 555 mmHg 76%
    16:00 +17°C° 0.7 mm 2 mps 554 mmHg 82%
    17:00 +15°C° 0.9 mm 1 mps 554 mmHg 87%
    18:00 +14°C° 0.9 mm 1 mps 554 mmHg 91%
    19:00 +13°C° 0.9 mm 1 mps 553 mmHg 96%
    20:00 +12°C° 0.4 mm 1 mps 553 mmHg 96%
    21:00 +10°C° 0.4 mm 0 mps 554 mmHg 96%
    22:00 +10°C° 0.4 mm 0 mps 554 mmHg 96%
    23:00 +9°C° 0 mm 0 mps 553 mmHg 96%

    Tomorrow, 24 September, Tuesday

    Time Temperature Precipitation Wind Pressure Humidity
    00:00 +9°C° 0 mm 0 mps 553 mmHg 95%
    01:00 +8°C° 0 mm 0 mps 552 mmHg 94%
    02:00 +8°C° 0 mm 0 mps 552 mmHg 93%
    03:00 +8°C° 0 mm 0 mps 552 mmHg 91%
    04:00 +8°C° 0 mm 0 mps 552 mmHg 90%
    05:00 +9°C° 0 mm 0 mps 553 mmHg 88%
    06:00 +10°C° 0 mm 0 mps 554 mmHg 86%
    07:00 +11°C° 0 mm 0 mps 555 mmHg 84%
    08:00 +14°C° 0 mm 1 mps 556 mmHg 75%
    09:00 +16°C° 0 mm 1 mps 558 mmHg 67%
    10:00 +19°C° 0 mm 1 mps 559 mmHg 58%
    11:00 +19°C° 0.3 mm 1 mps 558 mmHg 61%
    12:00 +18°C° 0.3 mm 2 mps 558 mmHg 63%
    13:00 +18°C° 0.3 mm 2 mps 557 mmHg 66%
    14:00 +17°C° 0.7 mm 2 mps 556 mmHg 72%
    15:00 +16°C° 0.7 mm 1 mps 555 mmHg 79%
    16:00 +15°C° 0.7 mm 1 mps 554 mmHg 86%
    17:00 +14°C° 0.8 mm 1 mps 554 mmHg 89%
    18:00 +13°C° 0.8 mm 1 mps 554 mmHg 92%
    19:00 +12°C° 0.8 mm 1 mps 553 mmHg 95%
    20:00 +12°C° 0.1 mm 1 mps 554 mmHg 95%
    21:00 +11°C° 0.1 mm 0 mps 554 mmHg 95%
    22:00 +11°C° 0.1 mm 0 mps 554 mmHg 95%
    23:00 +11°C° 0 mm 0 mps 554 mmHg 95%

    Day after tomorrow, 25 September, Wednesday

    Time Temperature Precipitation Wind Pressure Humidity
    00:00 +11°C° 0 mm 0 mps 554 mmHg 94%
    01:00 +11°C° 0 mm 0 mps 554 mmHg 94%
    02:00 +10°C° 0 mm 0 mps 554 mmHg 94%
    03:00 +10°C° 0 mm 0 mps 554 mmHg 94%
    04:00 +10°C° 0 mm 0 mps 554 mmHg 93%
    05:00 +11°C° 0 mm 0 mps 554 mmHg 92%
    06:00 +11°C° 0 mm 0 mps 555 mmHg 91%
    07:00 +12°C° 0 mm 0 mps 555 mmHg 90%
    08:00 +14°C° 0.2 mm 1 mps 556 mmHg 86%
    09:00 +15°C° 0.2 mm 1 mps 557 mmHg 81%
    10:00 +18°C° 0.2 mm 1 mps 558 mmHg 77%
    11:00 +18°C° 1.2 mm 1 mps 557 mmHg 78%
    12:00 +18°C° 1.2 mm 1 mps 556 mmHg 79%
    13:00 +17°C° 1.2 mm 2 mps 556 mmHg 80%
    14:00 +17°C° 1.1 mm 2 mps 555 mmHg 80%
    15:00 +17°C° 1.1 mm 2 mps 555 mmHg 80%
    16:00 +17°C° 1.1 mm 2 mps 555 mmHg 80%
    17:00 +15°C° 0.7 mm 1 mps 554 mmHg 86%
    18:00 +14°C° 0.7 mm 1 mps 554 mmHg 91%
    19:00 +12°C° 0.7 mm 1 mps 553 mmHg 96%
    20:00 +12°C° 0.1 mm 1 mps 554 mmHg 96%
    21:00 +12°C° 0.1 mm 1 mps 554 mmHg 96%
    22:00 +12°C° 0.1 mm 1 mps 555 mmHg 96%
    23:00 +10°C° 0 mm 0 mps 554 mmHg 96%

    26 September, Thursday

    Time Temperature Precipitation Wind Pressure Humidity
    00:00 +10°C° 0 mm 0 mps 554 mmHg 96%
    01:00 +10°C° 0 mm 0 mps 553 mmHg 95%
    02:00 +10°C° 0 mm 0 mps 553 mmHg 95%
    03:00 +10°C° 0 mm 0 mps 553 mmHg 94%
    04:00 +10°C° 0 mm 0 mps 553 mmHg 94%
    05:00 +11°C° 0 mm 1 mps 554 mmHg 93%
    06:00 +11°C° 0 mm 1 mps 554 mmHg 92%
    07:00 +12°C° 0 mm 1 mps 555 mmHg 91%
    08:00 +14°C° 0.1 mm 1 mps 556 mmHg 84%
    09:00 +15°C° 0.1 mm 2 mps 557 mmHg 78%
    10:00 +17°C° 0.1 mm 2 mps 558 mmHg 71%
    11:00 +17°C° 0.5 mm 2 mps 557 mmHg 73%
    12:00 +17°C° 0.5 mm 2 mps 556 mmHg 74%
    13:00 +17°C° 0.5 mm 3 mps 556 mmHg 75%
    14:00 +17°C° 0.5 mm 3 mps 555 mmHg 75%
    15:00 +17°C° 0.5 mm 3 mps 555 mmHg 75%
    16:00 +17°C° 0.5 mm 3 mps 554 mmHg 75%
    17:00 +15°C° 0.2 mm 2 mps 553 mmHg 82%
    18:00 +13°C° 0.2 mm 2 mps 553 mmHg 89%
    19:00 +11°C° 0.2 mm 1 mps 552 mmHg 95%
    20:00 +11°C° 0 mm 1 mps 552 mmHg 95%
    21:00 +11°C° 0 mm 1 mps 553 mmHg 96%
    22:00 +10°C° 0 mm 1 mps 553 mmHg 96%
    23:00 +11°C° 0 mm 1 mps 553 mmHg 95%

    27 September, Friday

    Time Temperature Precipitation Wind Pressure Humidity
    00:00 +10°C° 0 mm 0 mps 553 mmHg 94%
    01:00 +10°C° 0 mm 0 mps 553 mmHg 92%
    02:00 +10°C° 0 mm 0 mps 553 mmHg 93%
    03:00 +9°C° 0 mm 0 mps 552 mmHg 93%
    04:00 +8°C° 0 mm 0 mps 552 mmHg 94%
    05:00 +10°C° 0 mm 1 mps 553 mmHg 91%
    06:00 +11°C° 0 mm 1 mps 554 mmHg 89%
    07:00 +12°C° 0 mm 1 mps 555 mmHg 86%
    08:00 +14°C° 0.1 mm 1 mps 556 mmHg 78%
    09:00 +16°C° 0.1 mm 2 mps 557 mmHg 70%
    10:00 +18°C° 0.1 mm 2 mps 558 mmHg 62%
    11:00 +19°C° 0.4 mm 3 mps 558 mmHg 61%
    12:00 +19°C° 0.4 mm 3 mps 557 mmHg 61%
    13:00 +19°C° 0.4 mm 3 mps 557 mmHg 61%
    14:00 +19°C° 0.5 mm 3 mps 556 mmHg 65%
    15:00 +18°C° 0.5 mm 2 mps 555 mmHg 70%
    16:00 +17°C° 0.5 mm 2 mps 555 mmHg 74%
    17:00 +15°C° 0.3 mm 1 mps 554 mmHg 81%
    18:00 +13°C° 0.3 mm 1 mps 553 mmHg 88%
    19:00 +10°C° 0.3 mm 0 mps 552 mmHg 95%
    20:00 +10°C° 0 mm 0 mps 553 mmHg 95%
    21:00 +10°C° 0 mm 0 mps 553 mmHg 95%
    22:00 +9°C° 0 mm 0 mps 553 mmHg 95%
    23:00 +9°C° 0 mm 0 mps 553 mmHg 94%

    28 September, Saturday

    Time Temperature Precipitation Wind Pressure Humidity
    00:00 +9°C° 0 mm 0 mps 552 mmHg 94%
    01:00 +9°C° 0 mm 0 mps 552 mmHg 93%
    02:00 +8°C° 0 mm 0 mps 552 mmHg 92%
    03:00 +8°C° 0 mm 0 mps 552 mmHg 92%
    04:00 +8°C° 0 mm 0 mps 551 mmHg 91%
    05:00 +9°C° 0 mm 0 mps 552 mmHg 88%
    06:00 +10°C° 0 mm 0 mps 553 mmHg 86%
    07:00 +11°C° 0 mm 0 mps 555 mmHg 83%
    08:00 +15°C° 0 mm 1 mps 556 mmHg 72%
    09:00 +18°C° 0 mm 1 mps 557 mmHg 62%
    10:00 +21°C° 0 mm 1 mps 559 mmHg 51%
    11:00 +21°C° 0.2 mm 1 mps 558 mmHg 52%
    12:00 +20°C° 0.2 mm 2 mps 557 mmHg 52%
    13:00 +21°C° 0.2 mm 2 mps 557 mmHg 52%
    14:00 +20°C° 0.7 mm 2 mps 556 mmHg 61%
    15:00 +18°C° 0.7 mm 2 mps 555 mmHg 70%
    16:00 +17°C° 0.7 mm 2 mps 554 mmHg 78%
    17:00 +16°C° 0.9 mm 1 mps 553 mmHg 84%
    18:00 +14°C° 0.9 mm 1 mps 553 mmHg 90%
    19:00 +12°C° 0.9 mm 0 mps 553 mmHg 96%
    20:00 +11°C° 0.4 mm 0 mps 553 mmHg 96%
    21:00 +11°C° 0.4 mm 0 mps 553 mmHg 96%
    22:00 +10°C° 0.4 mm 0 mps 553 mmHg 96%
    23:00 +10°C° 0.1 mm 0 mps 553 mmHg 95%
    Show more